Weather History for Madison, MN

Change the Weather History Date:

Monday, March 18, 2013

  Actual Average (KAQP) Record (KAQP)
Temperature  
Mean Temperature 22 °F -  
Max Temperature 35 °F 34 °F 82 °F (2012)
Min Temperature 8 °F 17 °F 1 °F (1997)
Degree Days  
Heating Degree Days 44    
Moisture  
Dew Point 12 °F    
Average Humidity 75    
Maximum Humidity 93    
Minimum Humidity 62    
Precipitation  
Precipitation 0.00 in - - ()
Sea Level Pressure  
Sea Level Pressure 29.74 in    
Wind  
Wind Speed 26 mph (WNW)    
Max Wind Speed 37 mph    
Max Gust Speed 45 mph    
Visibility 9 miles    
Events Rain , Snow    
Averages and records for this station are not official NWS values.
T = Trace of Precipitation, MM = Missing Value Source: NWS Daily Summary

Daily Weather History Graph

Daily Weather History Graph

Search for Another Location

Airport:

Trip Planner

Search our weather history database for the weather conditions in past years. The results will help you decide how hot, cold, wet, or windy it might be!

Date:

Astronomy

Mar. 18, 2013 Rise Set
Actual Time 7:31 AM CDT 7:34 PM CDT
Civil Twilight 7:01 AM CDT 8:04 PM CDT
Nautical Twilight 6:27 AM CDT 8:38 PM CDT
Astronomical Twilight 5:52 AM CDT 9:13 PM CDT
Moon 11:16 AM CDT (3/18) 1:49 AM CDT (3/18)
Length of Visible Light 13h 02m
Length of Day
12h 03m
Waxing Crescent, 41% of the Moon is Illuminated
Mar 18
Waxing Crescent
Mar 19
First Quarter
Mar 27
Full
Apr 2
Last Quarter
Apr 10
New

Hourly Weather History & Observations

Time (CDT) Temp. Windchill Dew Point Humidity Pressure Visibility Wind Dir Wind Speed Gust Speed Precip Events Conditions
12:14 AM 30.2 °F 16.8 °F 28.4 °F 93% 29.61 in 2.0 mi SSE 23.0 mph - N/A Snow Light Snow
12:33 AM 30.2 °F 16.2 °F 28.4 °F 93% 29.61 in 2.0 mi South 25.3 mph - N/A Snow Light Snow
12:54 AM 30.2 °F 17.1 °F 28.4 °F 93% 29.60 in 5.0 mi South 21.9 mph 25.3 mph N/A Snow Light Snow
1:14 AM 32.0 °F 19.2 °F 28.4 °F 87% 29.59 in 7.0 mi South 23.0 mph - N/A   Overcast
1:33 AM 33.8 °F 21.9 °F 28.4 °F 81% 29.58 in 7.0 mi South 21.9 mph 26.5 mph N/A   Overcast
1:54 AM 33.8 °F 22.2 °F 28.4 °F 81% 29.57 in 10.0 mi South 20.7 mph - N/A   Overcast
2:14 AM 33.8 °F 20.8 °F 30.2 °F 87% 29.56 in 5.0 mi South 26.5 mph 34.5 mph N/A   Overcast
2:33 AM 33.8 °F 21.3 °F 30.2 °F 87% 29.55 in 5.0 mi South 24.2 mph 34.5 mph N/A   Overcast
2:54 AM 33.8 °F 20.3 °F 30.2 °F 87% 29.53 in 7.0 mi South 28.8 mph - N/A Snow Light Snow
3:14 AM 33.8 °F 20.3 °F 30.2 °F 87% 29.53 in 10.0 mi South 28.8 mph 36.8 mph N/A Rain Light Rain
3:33 AM 35.6 °F 24.8 °F 30.2 °F 81% 29.54 in 7.0 mi SSW 19.6 mph 31.1 mph N/A   Light Drizzle
3:54 AM 35.6 °F 24.5 °F 30.2 °F 81% 29.55 in 10.0 mi WSW 20.7 mph 34.5 mph N/A   Overcast
4:13 AM 33.8 °F 21.3 °F 28.4 °F 81% 29.56 in 10.0 mi WSW 24.2 mph 35.7 mph N/A   Overcast
4:34 AM 30.2 °F 14.3 °F 24.8 °F 80% 29.56 in 10.0 mi West 34.5 mph 43.7 mph N/A   Overcast
4:54 AM 28.4 °F 13.0 °F 23.0 °F 80% 29.57 in 7.0 mi West 28.8 mph 35.7 mph N/A   Overcast
5:13 AM 26.6 °F 11.4 °F 21.2 °F 80% 29.59 in 10.0 mi West 25.3 mph 32.2 mph N/A   Overcast
5:34 AM 24.8 °F 7.9 °F 19.4 °F 80% 29.59 in 10.0 mi West 29.9 mph 40.3 mph N/A   Overcast
5:54 AM 23.0 °F 5.4 °F 17.6 °F 80% 29.60 in 10.0 mi West 29.9 mph 36.8 mph N/A   Overcast
6:13 AM 21.2 °F 3.5 °F 15.8 °F 80% 29.61 in 10.0 mi West 27.6 mph 36.8 mph N/A   Mostly Cloudy
6:34 AM 19.4 °F 1.1 °F 14.0 °F 80% 29.63 in 10.0 mi West 27.6 mph 34.5 mph N/A   Scattered Clouds
6:54 AM 17.6 °F -1.0 °F 12.2 °F 79% 29.64 in 10.0 mi West 26.5 mph 33.4 mph N/A   Clear
7:13 AM 17.6 °F -1.0 °F 12.2 °F 79% 29.65 in 10.0 mi WNW 26.5 mph 35.7 mph N/A   Scattered Clouds
7:34 AM 17.6 °F -2.5 °F 10.4 °F 73% 29.66 in 10.0 mi West 32.2 mph 38.0 mph N/A   Scattered Clouds
7:54 AM 15.8 °F -6.1 °F 8.6 °F 73% 29.66 in 10.0 mi WNW 36.8 mph - N/A   Clear
8:13 AM 15.8 °F -4.4 °F 8.6 °F 73% 29.68 in 10.0 mi WNW 29.9 mph 35.7 mph N/A   Clear
8:34 AM 15.8 °F -4.1 °F 8.6 °F 73% 29.68 in 10.0 mi WNW 28.8 mph 36.8 mph N/A   Clear
8:53 AM 15.8 °F -4.4 °F 8.6 °F 73% 29.69 in 10.0 mi WNW 29.9 mph 40.3 mph N/A   Scattered Clouds
9:13 AM 15.8 °F -5.0 °F 6.8 °F 68% 29.69 in 10.0 mi WNW 32.2 mph 42.6 mph N/A   Scattered Clouds
9:34 AM 14.0 °F -8.5 °F 6.8 °F 73% 29.70 in 10.0 mi WNW 36.8 mph 41.4 mph N/A   Clear
9:53 AM 14.0 °F -7.1 °F 6.8 °F 73% 29.72 in 10.0 mi WNW 31.1 mph 36.8 mph N/A   Clear
10:13 AM 14.0 °F -6.8 °F 6.8 °F 73% 29.72 in 10.0 mi WNW 29.9 mph 42.6 mph N/A   Scattered Clouds
10:34 AM 14.0 °F -7.4 °F 6.8 °F 73% 29.72 in 10.0 mi WNW 32.2 mph 42.6 mph N/A   Clear
10:53 AM 14.0 °F -7.4 °F 6.8 °F 73% 29.72 in 10.0 mi WNW 32.2 mph 41.4 mph N/A   Clear
11:13 AM 12.2 °F -10.8 °F 5.0 °F 73% 29.73 in 10.0 mi WNW 35.7 mph 43.7 mph N/A   Clear
11:34 AM 14.0 °F -8.0 °F 5.0 °F 67% 29.73 in 10.0 mi WNW 34.5 mph 44.9 mph N/A   Clear
11:53 AM 15.8 °F -6.1 °F 5.0 °F 62% 29.74 in 10.0 mi WNW 36.8 mph 42.6 mph N/A   Clear
12:13 PM 15.8 °F -4.4 °F 6.8 °F 68% 29.74 in 10.0 mi WNW 29.9 mph 41.4 mph N/A   Clear
12:34 PM 15.8 °F -5.8 °F 6.8 °F 68% 29.75 in 10.0 mi WNW 35.7 mph 44.9 mph N/A   Clear
12:53 PM 15.8 °F -5.5 °F 6.8 °F 68% 29.75 in 10.0 mi WNW 34.5 mph 42.6 mph N/A   Scattered Clouds
1:13 PM 15.8 °F -4.7 °F 6.8 °F 68% 29.76 in 10.0 mi WNW 31.1 mph 41.4 mph N/A   Scattered Clouds
1:34 PM 15.8 °F -4.4 °F 6.8 °F 68% 29.77 in 10.0 mi WNW 29.9 mph 39.1 mph N/A   Scattered Clouds
1:53 PM 15.8 °F -4.7 °F 6.8 °F 68% 29.77 in 10.0 mi WNW 31.1 mph 41.4 mph N/A   Scattered Clouds
2:13 PM 14.0 °F -7.1 °F 6.8 °F 73% 29.78 in 10.0 mi WNW 31.1 mph 41.4 mph N/A   Scattered Clouds
2:34 PM 15.8 °F -3.7 °F 6.8 °F 68% 29.78 in 10.0 mi WNW 27.6 mph 43.7 mph N/A   Scattered Clouds
2:53 PM 15.8 °F -4.4 °F 6.8 °F 68% 29.79 in 10.0 mi WNW 29.9 mph 40.3 mph N/A   Clear
3:13 PM 15.8 °F -4.7 °F 6.8 °F 68% 29.79 in 10.0 mi WNW 31.1 mph 41.4 mph N/A   Scattered Clouds
3:34 PM 15.8 °F -4.7 °F 6.8 °F 68% 29.80 in 10.0 mi WNW 31.1 mph 38.0 mph N/A   Mostly Cloudy
3:53 PM 15.8 °F -4.4 °F 6.8 °F 68% 29.80 in 10.0 mi NW 29.9 mph 39.1 mph N/A   Mostly Cloudy
4:14 PM 15.8 °F -4.7 °F 6.8 °F 68% 29.81 in 10.0 mi NW 31.1 mph 42.6 mph N/A   Mostly Cloudy
4:34 PM 15.8 °F -4.1 °F 6.8 °F 68% 29.82 in 10.0 mi NW 28.8 mph 39.1 mph N/A   Mostly Cloudy
4:53 PM 15.8 °F -4.1 °F 6.8 °F 68% 29.83 in 10.0 mi NW 28.8 mph 38.0 mph N/A   Overcast
5:14 PM 15.8 °F -3.4 °F 6.8 °F 68% 29.84 in 10.0 mi NW 26.5 mph 34.5 mph N/A   Mostly Cloudy
5:33 PM 15.8 °F -3.7 °F 8.6 °F 73% 29.84 in 10.0 mi NW 27.6 mph 36.8 mph N/A   Mostly Cloudy
5:53 PM 15.8 °F -4.4 °F 8.6 °F 73% 29.85 in 10.0 mi NW 29.9 mph 38.0 mph N/A   Overcast
6:14 PM 15.8 °F -4.4 °F 8.6 °F 73% 29.86 in 10.0 mi NW 29.9 mph 36.8 mph N/A   Overcast
6:33 PM 15.8 °F -2.7 °F 6.8 °F 68% 29.87 in 10.0 mi WNW 24.2 mph 36.8 mph N/A   Mostly Cloudy
6:53 PM 14.0 °F -5.5 °F 6.8 °F 73% 29.88 in 10.0 mi NW 25.3 mph 33.4 mph N/A   Scattered Clouds
7:14 PM 14.0 °F -4.3 °F 6.8 °F 73% 29.89 in 10.0 mi NW 21.9 mph 31.1 mph N/A   Clear
7:33 PM 12.2 °F -6.3 °F 6.8 °F 79% 29.90 in 10.0 mi WNW 20.7 mph 27.6 mph N/A   Clear
7:53 PM 12.2 °F -7.5 °F 5.0 °F 73% 29.91 in 10.0 mi WNW 24.2 mph 29.9 mph N/A   Clear
8:14 PM 12.2 °F -6.7 °F 5.0 °F 73% 29.92 in 10.0 mi WNW 21.9 mph 29.9 mph N/A   Clear
8:33 PM 12.2 °F -7.1 °F 3.2 °F 67% 29.93 in 10.0 mi WNW 23.0 mph 28.8 mph N/A   Clear
8:54 PM 12.2 °F -6.7 °F 3.2 °F 67% 29.94 in 10.0 mi NW 21.9 mph 29.9 mph N/A   Clear
9:14 PM 10.4 °F -9.1 °F 3.2 °F 73% 29.95 in 10.0 mi NW 21.9 mph 26.5 mph N/A   Clear
9:33 PM 10.4 °F -7.2 °F 3.2 °F 73% 29.96 in 10.0 mi WNW 17.3 mph 28.8 mph N/A   Clear
9:54 PM 10.4 °F -7.2 °F 3.2 °F 73% 29.97 in 10.0 mi WNW 17.3 mph 24.2 mph N/A   Clear
10:14 PM 10.4 °F -7.7 °F 3.2 °F 73% 29.97 in 10.0 mi NW 18.4 mph - N/A   Clear
11:13 PM 10.4 °F -6.6 °F 3.2 °F 73% 29.98 in 10.0 mi NW 16.1 mph 23.0 mph N/A   Clear
11:34 PM 8.6 °F -8.9 °F 1.4 °F 73% 29.98 in 10.0 mi NW 16.1 mph - N/A   Clear
11:54 PM 8.6 °F -9.5 °F 1.4 °F 73% 29.98 in 10.0 mi NW 17.3 mph 21.9 mph N/A   Clear